Location: Newark
(46.9000°N, 28.3500°E)
Time: 15:29:59
(UTC+00:00)

Vanguard 1 Rocket - Pass Details

Date: 28 August 2019
Orbit: 651 x 4225 km, 34.3° (Epoch: 19 September)

Event Time Altitude Azimuth Distance (km) Brightness Sun altitude
Rises 00:39:40 0° 242° (WSW) 2,988 - -24.0°
Reaches altitude 10° 00:42:28 10° 222° (SW) 2,048 - -23.6°
Maximum altitude 00:45:37 19° 176° (S) 1,620 - -23.3°
Exits shadow 00:47:24 16° 149° (SSE) 1,870 8.8 -23.1°
Drops below altitude 10° 00:49:13 10° 131° (SE) 2,378 9.6 -22.9°
Sets 00:52:49 0° 114° (ESE) 3,679 10.8 -22.4°
